| time (UTC) | temp C | wind direction | speed KPH | gust KPH | rain 1hr cm | rain 24hr cm | rain mn cm | humidity % | barometer mb |
| 20260506071838 | 20 | 200 | 11.3 | 0.0 | 0.00 | 0.00 | 0.00 | 49 | 1014.0 |
| 20260506070338 | 20 | 200 | 11.3 | 0.0 | 0.00 | 0.00 | 0.00 | 49 | 1014.0 |
| 20260506061838 | 16 | 190 | 11.3 | 0.0 | 0.00 | 0.00 | 0.00 | 63 | 1014.0 |
| 20260506060340 | 16 | 190 | 11.3 | 0.0 | 0.00 | 0.00 | 0.00 | 63 | 1014.0 |
| 20260506050353 | 12 | 3.2 | 0.0 | 0.00 | 0.00 | 0.00 | 72 | 1014.0 | |
| 20260506044854 | 12 | 190 | 3.2 | 0.0 | 0.00 | 0.00 | 0.00 | 77 | 1014.0 |
| 20260506043342 | 12 | 190 | 3.2 | 0.0 | 0.00 | 0.00 | 0.00 | 77 | 1014.0 |
| 20260506041839 | 11 | 170 | 3.2 | 0.0 | 0.00 | 0.00 | 0.00 | 77 | 1013.0 |
| 20260506040338 | 11 | 170 | 3.2 | 0.0 | 0.00 | 0.00 | 0.00 | 77 | 1013.0 |
| 20260506034839 | 10 | 160 | 3.2 | 0.0 | 0.00 | 0.00 | 0.00 | 76 | 1013.0 |
| 20260506033338 | 10 | 160 | 3.2 | 0.0 | 0.00 | 0.00 | 0.00 | 76 | 1013.0 |
| 20260506031838 | 8 | 160 | 8.0 | 0.0 | 0.00 | 0.00 | 0.00 | 82 | 1013.0 |
| 20260506030338 | 8 | 160 | 8.0 | 0.0 | 0.00 | 0.00 | 0.00 | 82 | 1013.0 |
| 20260506024838 | 8 | 140 | 3.2 | 0.0 | 0.00 | 0.00 | 0.00 | 82 | 1013.0 |
| 20260506023338 | 8 | 140 | 3.2 | 0.0 | 0.00 | 0.00 | 0.00 | 82 | 1013.0 |
| 20260506021838 | 10 | 140 | 3.2 | 0.0 | 0.00 | 0.00 | 0.00 | 76 | 1013.0 |
| 20260506020338 | 10 | 140 | 3.2 | 0.0 | 0.00 | 0.00 | 0.00 | 76 | 1013.0 |
| 20260506014838 | 11 | 3.2 | 0.0 | 0.00 | 0.00 | 0.00 | 67 | 1013.0 | |
| 20260506013338 | 11 | 3.2 | 0.0 | 0.00 | 0.00 | 0.00 | 67 | 1013.0 | |
| 20260506011839 | 10 | 170 | 8.0 | 0.0 | 0.00 | 0.00 | 0.00 | 76 | 1013.0 |
| 20260506010338 | 10 | 170 | 8.0 | 0.0 | 0.00 | 0.00 | 0.00 | 76 | 1013.0 |
| 20260506004838 | 10 | 140 | 11.3 | 0.0 | 0.00 | 0.00 | 0.00 | 71 | 1012.0 |
| 20260506003459 | 10 | 140 | 11.3 | 0.0 | 0.00 | 0.00 | 0.00 | 71 | 1012.0 |
| 20260506001839 | 10 | 180 | 4.8 | 0.0 | 0.00 | 0.00 | 0.00 | 71 | 1012.0 |
| 20260506000339 | 10 | 180 | 4.8 | 0.0 | 0.00 | 0.00 | 0.00 | 71 | 1012.0 |
| 20260505234838 | 11 | 170 | 3.2 | 0.0 | 0.00 | 0.00 | 0.00 | 67 | 1012.0 |
| 20260505233338 | 11 | 170 | 3.2 | 0.0 | 0.00 | 0.00 | 0.00 | 67 | 1012.0 |
| 20260505231838 | 12 | 3.2 | 0.0 | 0.00 | 0.00 | 0.00 | 55 | 1012.0 | |
| 20260505230339 | 12 | 3.2 | 0.0 | 0.00 | 0.00 | 0.00 | 55 | 1012.0 | |
| 20260505224838 | 12 | 230 | 4.8 | 0.0 | 0.00 | 0.00 | 0.00 | 58 | 1012.0 |
| 20260505223338 | 12 | 230 | 4.8 | 0.0 | 0.00 | 0.00 | 0.00 | 58 | 1012.0 |
| 20260505221835 | 12 | 170 | 4.8 | 0.0 | 0.00 | 0.00 | 0.00 | 59 | 1012.0 |
| 20260505220339 | 12 | 170 | 4.8 | 0.0 | 0.00 | 0.00 | 0.00 | 59 | 1012.0 |
| 20260505214839 | 13 | 140 | 9.7 | 0.0 | 0.00 | 0.00 | 0.00 | 59 | 1012.0 |
| 20260505213338 | 13 | 140 | 9.7 | 0.0 | 0.00 | 0.00 | 0.00 | 59 | 1012.0 |
| 20260505211838 | 13 | 130 | 8.0 | 0.0 | 0.00 | 0.00 | 0.00 | 55 | 1011.0 |
| 20260505210338 | 13 | 130 | 8.0 | 0.0 | 0.00 | 0.00 | 0.00 | 55 | 1011.0 |
| 20260505204840 | 15 | 3.2 | 0.0 | 0.00 | 0.00 | 0.00 | 55 | 1011.0 | |
| 20260505203338 | 15 | 3.2 | 0.0 | 0.00 | 0.00 | 0.00 | 55 | 1011.0 | |
| 20260505201909 | 15 | 0 | 0.0 | 0.0 | 0.00 | 0.00 | 0.00 | 55 | 1011.0 |
| 20260505200339 | 15 | 0 | 0.0 | 0.0 | 0.00 | 0.00 | 0.00 | 55 | 1011.0 |
| 20260505194838 | 16 | 180 | 4.8 | 0.0 | 0.00 | 0.00 | 0.00 | 52 | 1011.0 |
| 20260505193338 | 16 | 180 | 4.8 | 0.0 | 0.00 | 0.00 | 0.00 | 52 | 1011.0 |
| 20260505191838 | 15 | 200 | 9.7 | 0.0 | 0.00 | 0.00 | 0.00 | 55 | 1011.0 |
| 20260505190338 | 15 | 200 | 9.7 | 0.0 | 0.00 | 0.00 | 0.00 | 55 | 1011.0 |
| 20260505184839 | 18 | 190 | 9.7 | 0.0 | 0.00 | 0.00 | 0.00 | 43 | 1011.0 |
| 20260505183339 | 18 | 190 | 9.7 | 0.0 | 0.00 | 0.00 | 0.00 | 43 | 1011.0 |
| 20260505181839 | 21 | 190 | 9.7 | 0.0 | 0.00 | 0.00 | 0.00 | 38 | 1011.0 |
| 20260505180338 | 21 | 190 | 9.7 | 0.0 | 0.00 | 0.00 | 0.00 | 38 | 1011.0 |
| 20260505174836 | 22 | 190 | 8.0 | 0.0 | 0.00 | 0.00 | 0.00 | 38 | 1011.0 |
| 20260505173338 | 22 | 190 | 8.0 | 0.0 | 0.00 | 0.00 | 0.00 | 38 | 1011.0 |
| 20260505171838 | 25 | 190 | 8.0 | 0.0 | 0.00 | 0.00 | 0.00 | 28 | 1011.0 |
| 20260505170339 | 25 | 190 | 8.0 | 0.0 | 0.00 | 0.00 | 0.00 | 28 | 1011.0 |
| 20260505164838 | 26 | 210 | 11.3 | 0.0 | 0.00 | 0.00 | 0.00 | 24 | 1011.0 |
| 20260505163338 | 26 | 210 | 11.3 | 0.0 | 0.00 | 0.00 | 0.00 | 24 | 1011.0 |
| 20260505161839 | 26 | 190 | 8.0 | 0.0 | 0.00 | 0.00 | 0.00 | 28 | 1011.0 |
| 20260505160339 | 26 | 190 | 8.0 | 0.0 | 0.00 | 0.00 | 0.00 | 28 | 1011.0 |
| 20260505153338 | 26 | 210 | 9.7 | 0.0 | 0.00 | 0.00 | 0.00 | 26 | 1011.0 |
| 20260505151846 | 27 | 220 | 17.7 | 0.0 | 0.00 | 0.00 | 0.00 | 21 | 1012.0 |
| 20260505150339 | 27 | 220 | 17.7 | 0.0 | 0.00 | 0.00 | 0.00 | 21 | 1012.0 |
| 20260505140338 | 27 | 190 | 20.9 | 0.0 | 0.00 | 0.00 | 0.00 | 20 | 1012.0 |
| 20260505124838 | 27 | 170 | 16.1 | 0.0 | 0.00 | 0.00 | 0.00 | 20 | 1013.0 |
| 20260505123338 | 27 | 170 | 16.1 | 0.0 | 0.00 | 0.00 | 0.00 | 20 | 1013.0 |
| 20260505121838 | 27 | 210 | 17.7 | 0.0 | 0.00 | 0.00 | 0.00 | 24 | 1013.0 |
| 20260505120347 | 27 | 220 | 14.5 | 0.0 | 0.00 | 0.00 | 0.00 | 24 | 1014.0 |
| 20260505114846 | 27 | 220 | 14.5 | 0.0 | 0.00 | 0.00 | 0.00 | 24 | 1014.0 |
| 20260505113409 | 27 | 220 | 14.5 | 0.0 | 0.00 | 0.00 | 0.00 | 24 | 1014.0 |
| 20260505111839 | 26 | 170 | 11.3 | 0.0 | 0.00 | 0.00 | 0.00 | 26 | 1014.0 |
| 20260505110339 | 26 | 170 | 11.3 | 0.0 | 0.00 | 0.00 | 0.00 | 26 | 1014.0 |
| 20260505101839 | 25 | 180 | 11.3 | 0.0 | 0.00 | 0.00 | 0.00 | 30 | 1015.0 |
| 20260505100338 | 25 | 180 | 11.3 | 0.0 | 0.00 | 0.00 | 0.00 | 30 | 1015.0 |
| 20260505094840 | 25 | 160 | 9.7 | 0.0 | 0.00 | 0.00 | 0.00 | 28 | 1015.0 |
| 20260505093338 | 25 | 160 | 9.7 | 0.0 | 0.00 | 0.00 | 0.00 | 28 | 1015.0 |
| 20260505091838 | 23 | 160 | 11.3 | 0.0 | 0.00 | 0.00 | 0.00 | 31 | 1015.0 |
| 20260505090338 | 23 | 160 | 11.3 | 0.0 | 0.00 | 0.00 | 0.00 | 31 | 1015.0 |
| 20260505084838 | 22 | 170 | 9.7 | 0.0 | 0.00 | 0.00 | 0.00 | 33 | 1015.0 |
| 20260505083339 | 22 | 170 | 9.7 | 0.0 | 0.00 | 0.00 | 0.00 | 33 | 1015.0 |
| 20260505081839 | 22 | 180 | 9.7 | 0.0 | 0.00 | 0.00 | 0.00 | 38 | 1016.0 |
| 20260505080338 | 22 | 180 | 9.7 | 0.0 | 0.00 | 0.00 | 0.00 | 38 | 1016.0 |
| 20260505074858 | 21 | 170 | 11.3 | 0.0 | 0.00 | 0.00 | 0.00 | 40 | 1016.0 |
| 20260505073338 | 21 | 170 | 11.3 | 0.0 | 0.00 | 0.00 | 0.00 | 40 | 1016.0 |